Miscellaneous Local Product
Issued by NWS North Platte, NE

Home | Current Version | Previous Version | Text Only | Print | Product List | Glossary On
Versions: 1 2 3 4 5 6 7 8 9 10 11 12 13 14 15 16 17 18 19 20 21 22 23 24 25 26 27 28 29 30 31 32 33 34 35 36 37 38 39 40 41 42 43 44 45 46 47 48 49 50
000
AXUS43 KLBF 021210
MISLBF


WESTERN AND NORTH CENTRAL NEBRASKA HOURLY WEATHER ROUNDUP
NATIONAL WEATHER SERVICE NORTH PLATTE NE
700 AM CDT THU JUL 02 2015

***STATIONS NOT REPORTING VARIABLES SUCH AS SKY/WEATHER OR
PRESSURE ARE PROVIDED BY THE NEBRASKA DEPARTMENT OF
ROADS...RAWS...AND APRS NETWORKS...AND ARE NOT UNDER
NATIONAL WEATHER SERVICE QUALITY CONTROL***

...OBSERVATIONS IN AND NEAR THE EASTERN PANHANDLE OF NEBRASKA...

CITY           SKY/WX    TMP DP  RH WIND       PRES   REMARKS
PINE RIDGE     PTCLDY    60  57  89 W8        30.07R
CHADRON        CLEAR     60  57  89 W12       30.07R
ALLIANCE       PTCLDY    57  56  96 W7        30.09R
SIDNEY         CLOUDY    58  57  97 S9        30.13F
WHITECLAY        N/A     60  56  88 CALM        N/A
CRESCENT LAKE    N/A     59  59  99 S6G13       N/A
BIG SPRINGS      N/A     61  59  92 CALM        N/A
$$

...OBSERVATIONS IN NORTH CENTRAL NEBRASKA...

CITY           SKY/WX    TMP DP  RH WIND       PRES   REMARKS
VALENTINE      CLOUDY    63  61  93 W6        29.98R
BROKEN BOW     LGT RAIN  68  58  70 SW18G25   29.93F
VALENTINE NWR    N/A     63  60  88 W5G13       N/A
SPRINGVIEW       N/A     67  65  94 CALM        N/A
HALSEY           N/A     63  60  91 W9          N/A
BREWSTER         N/A     70  64  83 S7          N/A
ROSE             N/A     79  79  99 W7          N/A
NEWPORT          N/A     69  69  99 SE5         N/A
CHAMBERS         N/A     66  64  95 E6          N/A
EWING            N/A     64  63  96 E3          N/A
$$

...OBSERVATIONS IN SOUTHWEST NEBRASKA AND FAR NORTHEAST COLORADO...

CITY           SKY/WX    TMP DP  RH WIND       PRES   REMARKS
WRAY           FAIR      62  55  75 N10G25    30.12S
HOLYOKE        PTSUNNY   63  55  77 N9        30.14S
IMPERIAL       CLOUDY    61  57  87 NE12      30.07F
NORTH PLATTE   CLOUDY    62  60  93 W3        30.03F
MCCOOK         CLOUDY    65  58  78 N22G32    30.03F
PAXTON           N/A     62  60  93 CALM        N/A
GOTHENBURG       N/A     64  58  80 SW3         N/A
CALLAWAY         N/A     63  61  93 NW5         N/A
$$

...NORTH PLATTE AREA...

CITY           SKY/WX    TMP DP  RH WIND       PRES   REMARKS
AIRPORT        CLOUDY    62  60  93 W3        30.03F
DOWNTOWN         N/A     62  60  95 CALM        N/A
HILLCREST        N/A     62  60  95 CALM        N/A
$$

...SOME WEATHER OBSERVATIONS FROM AROUND THE REGION...

CITY           SKY/WX    TMP DP  RH WIND       PRES   REMARKS
DENVER         MOCLDY    58  53  84 NE20      30.25R
LARAMIE        MOCLDY    54  51  90 S6        30.33S
CHEYENNE       CLOUDY    54  53  97 W7        30.29R
SCOTTSBLUFF    CLOUDY    61  50  68 S6        30.12S
RAPID CITY     CLEAR     64  61  90 N16       30.05R
PIERRE         TSTM      61  60  97 E15G23    29.94R VSB 1/2
WINNER         CLOUDY    70  66  87 SW7       29.92F FOG
SIOUX FALLS    CLOUDY    58  53  84 E3        30.00S
OMAHA          CLOUDY    64  59  83 E6        29.96R
GRAND ISLAND   CLOUDY    68  67  96 SE5       29.97R FOG
KANSAS CITY    CLOUDY    72  68  87 NE9       29.88S FOG
WICHITA        CLOUDY    76  72  87 N6        29.86S
HAYS           CLOUDY    73  64  73 NE7       29.94F
LIBERAL        CLOUDY    73  59  60 N10       29.99R
GOODLAND       CLOUDY    62  57  83 N20G31    30.10R
$$



USA.gov is the U.S. government's official web portal to all federal, state and local government web resources and services.